Location: Fluertsh�userhof
(48.7537°N, 10.3850°E)
Time: 05:59:07
(UTC+00:00)

CZ-4C R/B - Pass Details

Date: 18 September 2020
Orbit: 626 x 1375 km, 63.4° (Epoch: 22 October)

Event Time Altitude Azimuth Distance (km) Brightness Sun altitude
Exits shadow 23:01:58 24° 30° (NNE) 1,792 4.2 -39.8°
Drops below altitude 10° 23:04:33 10° 38° (NE) 2,714 5.3 -39.8°
Sets 23:07:28 0° 43° (NE) 3,793 6.1 -39.8°
